�������l�o���
Date,Time,MP-1(��Sv/h),MP-2(��Sv/h),MP-3(��Sv/h),MP-4(��Sv/h),MP-5(��Sv/h),MP-6(��Sv/h),MP-7(��Sv/h),MP-8(��Sv/h),����,����(m/s),���J
2018/09/09,00:00,0.802,1.200,0.846,1.499,1.091,0.466,0.818,0.773,�k��,3.4,�L
2018/09/09,00:10,0.802,1.199,0.846,1.502,1.090,0.466,0.817,0.772,���k��,3.0,�L
2018/09/09,00:20,0.802,1.198,0.847,1.499,1.091,0.468,0.817,0.773,���k��,3.0,��
2018/09/09,00:30,0.803,1.197,0.848,1.501,1.092,0.467,0.820,0.774,�k��,3.2,��
2018/09/09,00:40,0.801,1.197,0.847,1.500,1.087,0.468,0.818,0.772,�k��,3.8,��
2018/09/09,00:50,0.802,1.199,0.848,1.501,1.089,0.467,0.819,0.774,�k��,3.3,��
2018/09/09,01:00,0.800,1.200,0.846,1.501,1.088,0.467,0.818,0.774,�k��,4.6,��
2018/09/09,01:10,0.801,1.198,0.851,1.500,1.091,0.468,0.817,0.773,�k��,4.5,��
2018/09/09,01:20,0.801,1.195,0.847,1.501,1.091,0.467,0.818,0.774,�k��,4.2,��
2018/09/09,01:30,0.801,1.198,0.849,1.498,1.090,0.467,0.817,0.773,�k��,4.2,��
2018/09/09,01:40,0.801,1.196,0.845,1.500,1.091,0.468,0.817,0.774,�k�k��,4.7,��
2018/09/09,01:50,0.800,1.197,0.848,1.500,1.089,0.467,0.815,0.774,�k�k��,4.9,��
2018/09/09,02:00,0.802,1.196,0.847,1.502,1.088,0.467,0.817,0.773,�k�k��,4.9,��
2018/09/09,02:10,0.800,1.198,0.847,1.502,1.090,0.466,0.818,0.774,�k�k��,4.7,��
2018/09/09,02:20,0.801,1.195,0.847,1.504,1.090,0.467,0.815,0.773,�k�k��,4.7,�L
2018/09/09,02:30,0.799,1.196,0.846,1.501,1.090,0.466,0.815,0.773,�k�k��,4.5,�L
2018/09/09,02:40,0.802,1.197,0.847,1.500,1.089,0.467,0.814,0.773,�k�k��,4.4,��
2018/09/09,02:50,0.801,1.198,0.848,1.501,1.089,0.467,0.816,0.771,�k�k��,4.3,�L
2018/09/09,03:00,0.799,1.195,0.848,1.501,1.092,0.466,0.817,0.774,�k�k��,5.1,��
2018/09/09,03:10,0.802,1.195,0.849,1.500,1.091,0.468,0.817,0.773,�k�k��,5.2,��
2018/09/09,03:20,0.801,1.196,0.849,1.501,1.090,0.465,0.816,0.772,�k�k��,5.1,��
2018/09/09,03:30,0.800,1.198,0.848,1.499,1.091,0.468,0.816,0.774,�k�k��,4.9,�L
2018/09/09,03:40,0.801,1.199,0.850,1.500,1.090,0.469,0.818,0.773,�k�k��,4.6,�L
2018/09/09,03:50,0.802,1.199,0.847,1.501,1.090,0.467,0.817,0.773,�k�k��,4.3,��
2018/09/09,04:00,0.801,1.199,0.849,1.500,1.091,0.466,0.818,0.775,�k�k��,3.9,��
2018/09/09,04:10,0.801,1.198,0.848,1.501,1.090,0.467,0.819,0.771,�k�k��,4.2,��
2018/09/09,04:20,0.801,1.199,0.850,1.501,1.091,0.467,0.815,0.774,�k�k��,3.6,�L
2018/09/09,04:30,0.800,1.197,0.848,1.499,1.089,0.469,0.817,0.775,�k�k��,3.2,�L
2018/09/09,04:40,0.800,1.198,0.848,1.500,1.088,0.468,0.816,0.773,�k�k��,3.8,�L
2018/09/09,04:50,0.800,1.196,0.848,1.502,1.089,0.468,0.815,0.773,�k��,3.6,�L
2018/09/09,05:00,0.802,1.195,0.846,1.501,1.089,0.467,0.815,0.772,�k��,3.7,�L
2018/09/09,05:10,0.801,1.196,0.847,1.500,1.089,0.468,0.816,0.773,�k��,3.8,�L
2018/09/09,05:20,0.800,1.196,0.846,1.500,1.089,0.469,0.815,0.774,�k��,3.6,�L
2018/09/09,05:30,0.798,1.194,0.847,1.499,1.087,0.468,0.816,0.772,�k��,3.7,�L
2018/09/09,05:40,0.798,1.196,0.846,1.500,1.087,0.468,0.815,0.773,�k��,4.0,�L
2018/09/09,05:50,0.797,1.193,0.846,1.496,1.085,0.467,0.815,0.773,�k�k��,4.3,�L
2018/09/09,06:00,0.797,1.190,0.844,1.497,1.084,0.466,0.814,0.771,�k��,3.5,�L
2018/09/09,06:10,0.797,1.191,0.848,1.498,1.084,0.467,0.812,0.772,�k�k��,4.3,�L
2018/09/09,06:20,0.797,1.189,0.843,1.495,1.084,0.466,0.813,0.771,�k�k��,5.1,�L
2018/09/09,06:30,0.795,1.189,0.843,1.494,1.083,0.467,0.814,0.771,�k�k��,4.6,�L
2018/09/09,06:40,0.797,1.190,0.844,1.494,1.084,0.466,0.813,0.770,�k�k��,4.1,�L
2018/09/09,06:50,0.795,1.188,0.842,1.495,1.082,0.468,0.813,0.772,�k��,3.5,�L
2018/09/09,07:00,0.793,1.187,0.842,1.494,1.081,0.468,0.813,0.773,�k�k��,3.7,�L
2018/09/09,07:10,0.793,1.185,0.842,1.495,1.080,0.466,0.812,0.770,�k�k��,3.9,�L
2018/09/09,07:20,0.794,1.187,0.844,1.491,1.081,0.467,0.812,0.770,�k��,3.7,�L
2018/09/09,07:30,0.795,1.183,0.842,1.493,1.079,0.467,0.810,0.768,�k��,4.0,�L
2018/09/09,07:40,0.792,1.179,0.841,1.493,1.078,0.467,0.811,0.768,�k�k��,4.6,�L
2018/09/09,07:50,0.790,1.183,0.841,1.490,1.078,0.467,0.811,0.768,�k��,4.0,�L
2018/09/09,08:00,0.793,1.179,0.840,1.489,1.080,0.465,0.810,0.769,�k��,4.4,�L
2018/09/09,08:10,0.792,1.180,0.841,1.491,1.078,0.465,0.811,0.769,�k�k��,4.0,�L
2018/09/09,08:20,0.791,1.179,0.840,1.487,1.078,0.466,0.810,0.769,�k�k��,5.0,�L
2018/09/09,08:30,0.791,1.179,0.837,1.487,1.077,0.467,0.812,0.768,�k�k��,4.2,�L
2018/09/09,08:40,0.792,1.177,0.839,1.487,1.078,0.466,0.812,0.768,�k�k��,4.1,�L
2018/09/09,08:50,0.792,1.175,0.838,1.487,1.074,0.467,0.810,0.767,�k�k��,4.7,�L
2018/09/09,09:00,0.791,1.175,0.839,1.483,1.077,0.466,0.810,0.767,�k��,4.9,�L
2018/09/09,09:10,0.789,1.176,0.837,1.485,1.076,0.465,0.811,0.769,�k�k��,5.2,�L
2018/09/09,09:20,0.791,1.176,0.835,1.481,1.073,0.464,0.810,0.768,�k��,4.4,�L
2018/09/09,09:30,0.790,1.173,0.834,1.483,1.070,0.465,0.811,0.766,�k�k��,5.3,�L
2018/09/09,09:40,0.789,1.174,0.834,1.481,1.072,0.464,0.810,0.767,�k�k��,6.4,�L
2018/09/09,09:50,0.790,1.171,0.834,1.480,1.072,0.464,0.810,0.769,�k�k��,7.2,�L
2018/09/09,10:00,0.789,1.172,0.832,1.479,1.071,0.464,0.811,0.766,�k�k��,7.8,�L
2018/09/09,10:10,0.789,1.171,0.833,1.481,1.070,0.465,0.810,0.768,�k�k��,7.9,�L
2018/09/09,10:20,0.788,1.172,0.832,1.478,1.071,0.465,0.810,0.767,�k�k��,7.3,�L
2018/09/09,10:30,0.786,1.173,0.833,1.480,1.072,0.463,0.810,0.766,�k�k��,6.2,�L
2018/09/09,10:40,0.787,1.174,0.834,1.479,1.073,0.462,0.809,0.767,�k�k��,6.8,�L
2018/09/09,10:50,0.787,1.170,0.833,1.480,1.070,0.463,0.808,0.768,�k�k��,7.7,�L
2018/09/09,11:00,0.786,1.170,0.834,1.482,1.070,0.462,0.811,0.766,�k�k��,7.6,�L
2018/09/09,11:10,0.788,1.169,0.832,1.477,1.070,0.462,0.810,0.766,�k�k��,8.3,�L
2018/09/09,11:20,0.788,1.168,0.832,1.480,1.068,0.460,0.810,0.765,�k�k��,7.3,�L
2018/09/09,11:30,0.787,1.167,0.831,1.478,1.069,0.463,0.809,0.767,�k�k��,7.4,�L
2018/09/09,11:40,0.786,1.167,0.832,1.479,1.068,0.462,0.809,0.766,�k�k��,6.4,�L
2018/09/09,11:50,0.788,1.168,0.829,1.479,1.069,0.461,0.810,0.766,�k�k��,5.7,�L
2018/09/09,12:00,0.786,1.166,0.830,1.480,1.070,0.462,0.811,0.766,�k�k��,6.5,�L
2018/09/09,12:10,0.788,1.170,0.832,1.479,1.070,0.462,0.808,0.767,�k�k��,7.4,�L
2018/09/09,12:20,0.787,1.167,0.834,1.483,1.070,0.461,0.810,0.765,�k�k��,6.6,�L
2018/09/09,12:30,0.789,1.167,0.833,1.477,1.070,0.461,0.808,0.769,�k�k��,5.9,�L
2018/09/09,12:40,0.788,1.170,0.833,1.479,1.070,0.461,0.810,0.766,�k�k��,5.9,�L
2018/09/09,12:50,0.787,1.171,0.834,1.476,1.070,0.462,0.810,0.766,�k�k��,6.4,�L
2018/09/09,13:00,0.787,1.170,0.833,1.480,1.070,0.461,0.810,0.767,�k�k��,6.4,�L
2018/09/09,13:10,0.789,1.172,0.833,1.480,1.073,0.462,0.810,0.767,�k��,6.6,�L
2018/09/09,13:20,0.790,1.171,0.833,1.480,1.070,0.462,0.810,0.768,�k�k��,6.0,�L
2018/09/09,13:30,0.788,1.169,0.834,1.481,1.071,0.461,0.810,0.768,�k�k��,7.3,�L
2018/09/09,13:40,0.786,1.171,0.834,1.483,1.070,0.461,0.808,0.767,�k�k��,5.2,�L
2018/09/09,13:50,0.787,1.171,0.832,1.480,1.071,0.462,0.809,0.767,�k�k��,5.2,�L
2018/09/09,14:00,0.787,1.172,0.834,1.481,1.073,0.463,0.810,0.767,�k�k��,6.8,�L
2018/09/09,14:10,0.788,1.172,0.834,1.481,1.074,0.462,0.810,0.768,�k�k��,6.0,�L
2018/09/09,14:20,0.788,1.174,0.833,1.482,1.074,0.462,0.812,0.768,�k�k��,6.6,��
2018/09/09,14:30,0.787,1.172,0.835,1.483,1.074,0.461,0.811,0.767,�k�k��,5.8,��
2018/09/09,14:40,0.786,1.172,0.835,1.480,1.071,0.461,0.812,0.768,�k�k��,7.0,�L
2018/09/09,14:50,0.787,1.174,0.831,1.482,1.069,0.462,0.811,0.765,�k�k��,6.4,��
2018/09/09,15:00,0.786,1.172,0.832,1.481,1.073,0.461,0.810,0.769,�k�k��,6.4,�L
2018/09/09,15:10,0.788,1.175,0.831,1.482,1.074,0.462,0.810,0.766,�k�k��,7.4,��
2018/09/09,15:20,0.788,1.175,0.831,1.482,1.071,0.460,0.811,0.766,�k,5.6,�L
2018/09/09,15:30,0.788,1.173,0.834,1.482,1.070,0.461,0.811,0.767,�k�k��,6.7,�L
2018/09/09,15:40,0.788,1.174,0.832,1.481,1.071,0.460,0.811,0.768,�k�k��,6.2,�L
2018/09/09,15:50,0.789,1.173,0.833,1.484,1.073,0.460,0.812,0.768,�k�k��,5.7,�L
2018/09/09,16:00,0.787,1.175,0.833,1.481,1.072,0.460,0.812,0.768,�k�k��,6.0,�L
2018/09/09,16:10,0.787,1.174,0.832,1.481,1.073,0.460,0.812,0.770,�k�k��,5.8,�L
2018/09/09,16:20,0.787,1.174,0.830,1.481,1.070,0.460,0.812,0.768,�k�k��,5.1,�L
2018/09/09,16:30,0.787,1.174,0.833,1.482,1.073,0.461,0.810,0.768,�k��,5.8,�L
2018/09/09,16:40,0.787,1.176,0.832,1.482,1.070,0.462,0.810,0.768,�k�k��,7.4,��
2018/09/09,16:50,0.788,1.176,0.833,1.485,1.072,0.462,0.810,0.768,�k�k��,6.6,��
2018/09/09,17:00,0.789,1.177,0.831,1.484,1.072,0.461,0.813,0.768,�k�k��,6.1,�L
2018/09/09,17:10,0.789,1.176,0.832,1.485,1.072,0.461,0.810,0.767,�k�k��,6.5,�L
2018/09/09,17:20,0.787,1.179,0.833,1.483,1.072,0.462,0.811,0.768,�k�k��,6.3,�L
2018/09/09,17:30,0.787,1.178,0.832,1.485,1.075,0.460,0.811,0.768,�k�k��,6.6,�L
2018/09/09,17:40,0.791,1.179,0.832,1.485,1.074,0.462,0.812,0.770,�k�k��,7.3,�L
2018/09/09,17:50,0.789,1.178,0.833,1.483,1.074,0.460,0.812,0.770,�k�k��,6.8,�L
2018/09/09,18:00,0.789,1.176,0.835,1.484,1.074,0.462,0.810,0.768,�k�k��,7.0,�L
2018/09/09,18:10,0.790,1.175,0.835,1.487,1.073,0.463,0.811,0.768,�k�k��,8.2,�L
2018/09/09,18:20,0.790,1.174,0.832,1.485,1.076,0.463,0.810,0.768,�k�k��,9.0,�L
2018/09/09,18:30,0.788,1.174,0.833,1.484,1.071,0.462,0.811,0.768,�k�k��,7.5,�L
2018/09/09,18:40,0.786,1.174,0.832,1.486,1.074,0.464,0.810,0.768,�k�k��,8.7,�L
2018/09/09,18:50,0.786,1.174,0.831,1.483,1.072,0.462,0.811,0.767,�k�k��,7.7,�L
2018/09/09,19:00,0.788,1.171,0.831,1.483,1.070,0.462,0.811,0.766,�k�k��,7.5,�L
2018/09/09,19:10,0.786,1.174,0.830,1.484,1.071,0.461,0.811,0.764,�k�k��,8.1,�L
2018/09/09,19:20,0.787,1.168,0.832,1.482,1.069,0.460,0.809,0.768,�k�k��,8.1,�L
2018/09/09,19:30,0.785,1.171,0.830,1.485,1.070,0.459,0.810,0.768,�k�k��,8.2,�L
2018/09/09,19:40,0.788,1.171,0.831,1.484,1.071,0.461,0.810,0.771,�k�k��,8.1,�L
2018/09/09,19:50,0.787,1.169,0.832,1.487,1.071,0.461,0.810,0.767,�k��,7.9,�L
2018/09/09,20:00,0.789,1.173,0.832,1.481,1.071,0.462,0.809,0.769,�k�k��,8.1,�L
2018/09/09,20:10,0.789,1.174,0.834,1.481,1.071,0.461,0.809,0.767,�k��,6.1,�L
2018/09/09,20:20,0.790,1.173,0.832,1.482,1.071,0.462,0.809,0.769,�k�k��,7.9,�L
2018/09/09,20:30,0.788,1.176,0.833,1.482,1.068,0.460,0.811,0.769,�k�k��,8.5,�L
2018/09/09,20:40,0.790,1.175,0.831,1.481,1.072,0.459,0.811,0.768,�k�k��,7.4,�L
2018/09/09,20:50,0.790,1.176,0.832,1.483,1.070,0.461,0.808,0.769,�k�k��,7.3,�L
2018/09/09,21:00,0.789,1.177,0.833,1.481,1.074,0.461,0.809,0.768,�k�k��,8.1,�L
2018/09/09,21:10,0.788,1.176,0.833,1.481,1.072,0.462,0.809,0.769,�k�k��,7.0,�L
2018/09/09,21:20,0.790,1.174,0.834,1.482,1.071,0.461,0.810,0.769,�k��,6.6,�L
2018/09/09,21:30,0.786,1.174,0.832,1.482,1.071,0.460,0.810,0.769,�k�k��,7.2,�L
2018/09/09,21:40,0.788,1.177,0.832,1.481,1.072,0.460,0.808,0.770,�k�k��,6.3,�L
2018/09/09,21:50,0.788,1.176,0.833,1.480,1.072,0.460,0.810,0.770,�k�k��,7.5,�L
2018/09/09,22:00,0.790,1.177,0.831,1.483,1.071,0.461,0.808,0.771,�k�k��,6.7,�L
2018/09/09,22:10,0.788,1.176,0.834,1.480,1.071,0.462,0.809,0.770,�k��,6.3,�L
2018/09/09,22:20,0.789,1.174,0.832,1.483,1.072,0.461,0.809,0.769,�k��,6.5,�L
2018/09/09,22:30,0.787,1.176,0.834,1.483,1.070,0.461,0.809,0.770,�k��,6.9,�L
2018/09/09,22:40,0.788,1.175,0.834,1.483,1.070,0.461,0.809,0.768,�k��,6.7,�L
2018/09/09,22:50,0.787,1.176,0.832,1.484,1.072,0.462,0.809,0.769,�k��,6.1,�L
2018/09/09,23:00,0.788,1.174,0.833,1.482,1.069,0.461,0.808,0.769,�k��,5.7,��
2018/09/09,23:10,0.787,1.174,0.833,1.484,1.071,0.461,0.809,0.770,�k��,5.7,�L
2018/09/09,23:20,0.786,1.174,0.832,1.482,1.071,0.462,0.807,0.769,�k��,6.0,�L
2018/09/09,23:30,0.788,1.174,0.833,1.484,1.069,0.461,0.810,0.769,�k��,5.7,��
2018/09/09,23:40,0.787,1.173,0.833,1.483,1.070,0.463,0.809,0.770,�k��,5.3,�L
2018/09/09,23:50,0.789,1.176,0.833,1.481,1.070,0.462,0.808,0.769,�k��,4.9,�L
